Theta_e
345 346 347 347 347 349 347 338 342 343 345 347 349 349 348 344 340 332 328 325 322 324 324 323 322 321 321 323 332 332 331 331 331 331 330 330 330 329 330 330 328 329 330
345 346 346 346 347 348 349 340 339 340 346 349 350 351 349 349 346 344 342 339 329 322 328 324 325 323 323 328 328 330 329 331 332 331 331 330 328 329 328 328 328 327 326
344 345 347 347 347 347 349 348 339 340 345 347 349 349 349 350 350 347 345 343 341 334 323 328 326 328 324 324 327 329 328 327 331 332 329 327 328 327 325 326 326 328 329
345 345 346 347 347 347 349 350 347 339 339 346 347 348 348 349 351 348 347 345 343 341 331 324 327 327 327 326 325 325 327 324 328 329 331 330 329 329 325 326 326 326 327
345 345 344 346 347 347 349 349 350 347 340 339 342 345 349 350 349 350 350 350 347 345 343 331 325 327 326 328 330 327 328 326 330 330 331 330 330 330 329 327 326 327 327
345 345 345 346 347 347 349 349 350 350 349 341 338 340 342 343 342 344 348 349 349 348 346 338 329 328 326 327 331 333 332 328 332 333 332 332 330 331 329 328 326 325 322
345 346 346 346 347 347 349 349 349 350 349 348 343 339 340 341 342 343 344 344 349 349 346 342 338 329 328 327 329 334 335 333 332 332 330 329 330 331 329 329 326 325 325
345 346 347 348 347 349 349 349 350 350 350 349 347 343 341 342 344 344 345 348 351 350 348 346 344 335 328 328 331 334 336 332 332 332 332 330 327 327 329 327 326 325 326
345 346 347 347 347 350 350 348 349 351 351 350 348 348 345 343 345 347 351 354 352 351 349 346 342 334 330 332 337 336 333 334 334 333 331 326 325 328 327 326 326 326 324
345 345 346 347 349 349 347 348 349 350 350 351 350 349 348 344 348 353 355 355 351 350 347 340 333 332 334 337 337 336 336 334 335 329 328 326 328 327 326 326 324 320 320
346 347 347 349 350 350 351 353 352 351 354 355 357 346 347 349 355 355 355 351 348 343 341 337 335 334 336 339 338 337 336 334 330 328 327 326 326 323 320 319 319 317 316
342 346 347 347 350 352 354 355 356 356 356 359 359 354 353 356 356 344 338 333 341 341 339 337 337 339 339 339 337 336 332 328 326 325 325 324 319 318 317 319 318 316 315
341 343 343 341 343 343 348 350 353 354 357 362 361 353 353 352 339 339 342 343 341 341 340 341 341 340 339 338 335 331 328 326 328 327 320 319 318 318 317 317 317 316 315
336 338 343 344 347 351 354 355 357 358 361 361 360 355 351 347 339 337 343 343 341 341 342 341 338 336 335 334 331 329 328 327 326 321 319 319 318 318 318 317 316 315 311
347 349 348 348 350 352 357 359 361 359 360 358 358 355 348 336 331 335 342 341 340 341 339 338 337 335 335 331 330 327 323 322 322 321 320 319 318 317 317 317 314 312 307
354 355 354 353 353 357 359 354 359 357 352 347 344 344 333 331 331 338 339 342 341 340 340 336 331 331 330 329 325 323 324 324 323 323 322 320 319 319 318 314 312 308 306
360 358 359 360 359 358 354 351 348 340 334 335 333 337 333 338 343 341 341 341 338 334 331 328 327 327 326 325 324 323 323 324 324 321 320 319 319 317 313 312 309 305 305
354 352 353 351 349 348 346 341 338 335 334 331 331 333 341 341 341 340 336 331 328 326 325 325 325 325 325 323 322 321 320 319 318 318 318 318 316 314 311 308 305 305 304
344 345 342 337 339 339 336 332 331 334 333 335 340 341 341 340 336 329 327 326 324 323 324 323 321 319 318 319 319 319 318 317 317 317 316 315 313 307 306 305 304 304 304
339 338 339 340 340 337 334 336 332 335 340 340 339 339 338 334 330 328 326 324 324 323 321 319 319 319 318 317 317 316 315 315 314 313 312 309 306 305 305 304 304 304 304
336 336 334 335 333 331 334 337 339 338 338 338 337 334 331 329 326 324 323 322 321 320 319 319 317 315 315 314 313 313 312 309 305 304 305 305 305 304 304 303 303 304 304
332 333 336 336 334 333 333 335 334 333 334 335 334 331 328 324 322 322 321 320 318 318 318 317 317 316 314 312 311 310 309 308 308 306 304 305 304 304 303 301 303 304 304
334 330 331 331 331 329 330 330 328 328 327 328 326 322 321 321 321 320 319 319 319 318 318 317 316 315 314 311 308 308 308 306 303 303 304 304 303 303 299 301 303 303 303
333 334 333 332 334 334 334 333 332 329 327 323 323 322 322 323 321 320 320 320 319 319 318 317 316 315 312 310 309 306 305 303 302 301 302 303 302 298 298 301 303 303 302
328 329 330 329 330 329 327 325 327 328 328 325 326 324 324 324 322 321 320 320 320 319 318 317 316 315 313 312 312 310 305 304 300 299 299 300 299 297 297 300 302 302 302
328 326 326 326 328 329 327 328 328 328 328 328 328 327 326 325 324 325 321 321 320 319 317 314 313 312 313 314 313 312 310 305 300 299 299 298 298 297 297 301 302 302 302
Wind_Speed
57 53 50 46 43 40 35 37 36 35 33 32 28 24 21 21 20 21 19 19 20 18 17 17 15 15 16 18 20 19 17 16 16 13 14 13 10 10 11 15 19 18 16
58 57 52 48 45 44 39 39 39 38 37 34 30 29 27 26 25 25 23 22 22 22 20 19 18 17 17 16 17 17 17 16 17 16 15 14 12 12 14 16 19 20 22
58 57 57 53 50 47 45 40 42 42 42 39 37 35 34 31 30 28 27 26 24 24 24 23 21 18 18 18 19 20 18 19 20 21 17 14 12 12 11 19 24 23 19
57 55 56 58 52 48 48 46 43 44 45 43 42 42 40 37 34 32 31 30 29 26 26 27 25 23 20 18 18 19 19 20 20 21 20 19 17 16 18 22 23 21 24
54 56 55 54 54 50 50 50 47 45 47 47 46 45 42 42 40 37 35 34 32 30 29 29 29 26 23 20 20 19 19 22 22 22 23 23 22 22 21 25 23 19 19
50 51 53 53 53 54 52 51 51 49 47 49 49 49 48 47 44 41 39 38 34 34 35 33 29 29 26 23 23 22 20 22 24 23 24 25 24 23 21 24 22 20 23
50 50 52 54 54 53 55 53 53 53 51 50 50 50 49 47 45 41 39 38 36 37 37 33 29 31 27 26 24 23 22 22 25 25 25 24 25 21 25 27 24 21 21
54 52 51 54 55 54 53 55 55 55 54 52 50 49 47 45 41 37 34 33 38 31 30 29 28 28 27 26 24 22 22 25 27 27 26 21 21 23 28 25 22 21 21
54 53 53 56 56 55 55 54 55 56 55 54 52 49 44 41 34 31 31 34 26 27 26 24 22 22 23 21 21 21 22 25 27 28 25 23 21 23 21 20 19 21 25
51 51 53 55 56 56 56 56 54 54 55 52 50 47 39 36 30 27 25 24 20 23 20 18 18 20 19 18 19 21 22 21 18 14 17 21 20 18 17 19 20 21 17
42 48 52 53 54 52 52 54 55 53 51 47 44 39 36 32 27 25 23 18 19 23 22 20 18 18 20 20 21 22 24 19 11 14 16 15 12 12 16 18 14 12 15
33 41 48 48 48 48 48 49 52 51 47 45 42 39 33 32 29 28 22 14 25 24 22 16 16 16 18 20 18 17 11 9 10 13 13 9 9 9 9 10 12 14 17
36 41 45 41 45 47 50 52 52 53 49 44 41 35 31 32 30 24 27 27 27 26 20 18 18 17 17 15 12 9 11 12 13 10 7 8 10 11 11 11 12 16 19
46 48 49 49 49 45 47 49 48 47 43 43 44 39 32 29 17 18 29 27 24 23 20 18 16 16 16 11 10 10 12 12 11 11 10 10 11 12 13 13 16 20 22
35 42 44 44 40 38 39 35 35 35 38 42 46 43 34 32 23 26 26 20 20 23 20 19 16 18 15 12 11 10 11 12 14 12 11 11 11 13 14 16 16 19 17
19 25 29 35 35 35 35 19 30 28 26 18 20 35 28 21 28 29 23 24 22 21 21 16 14 15 13 11 12 12 11 12 13 12 13 13 14 16 15 15 16 15 16
12 17 21 24 27 33 26 25 28 15 30 18 8 6 17 28 25 23 26 25 23 21 17 15 15 13 13 14 12 12 12 12 12 12 15 15 15 14 15 15 14 13 16
4 5 12 9 7 10 11 3 6 13 29 26 28 28 22 18 19 22 25 24 23 20 18 16 14 15 14 12 11 9 9 9 9 12 15 15 13 15 16 12 11 15 15
4 6 6 10 2 11 14 10 10 26 27 31 34 28 25 22 22 23 22 18 19 18 16 15 13 10 8 9 8 8 8 8 9 12 12 15 15 10 9 10 12 13 15
13 10 14 15 23 17 18 25 28 27 30 29 27 28 29 28 27 24 20 19 17 15 14 12 9 7 7 8 8 9 9 10 12 14 14 12 9 8 9 11 13 13 11
21 21 18 12 13 16 22 22 23 24 23 23 22 23 22 21 20 18 19 16 14 12 12 10 6 5 4 4 8 10 10 10 8 7 7 7 7 8 11 13 11 12 12
21 21 17 16 18 17 15 17 18 19 20 22 24 22 19 16 17 17 16 14 13 13 11 9 6 5 1 3 3 5 6 7 7 6 7 8 9 10 12 10 10 11 12
12 16 17 19 18 17 13 14 17 17 19 22 23 22 22 21 18 16 14 14 13 11 10 8 7 3 3 4 2 3 6 7 7 7 8 9 10 12 10 9 9 9 8
5 8 15 16 18 19 18 13 12 15 15 17 21 22 21 20 18 16 14 14 13 13 10 10 8 2 3 4 6 1 5 6 6 8 9 10 11 11 10 9 9 10 7
9 10 13 16 14 15 13 11 10 11 15 14 18 20 20 20 19 18 18 17 15 12 9 10 10 4 3 2 4 7 6 5 5 6 7 8 9 10 11 10 9 7 6
6 5 8 7 11 9 5 7 8 8 13 15 19 18 18 16 22 16 18 16 15 15 11 8 8 8 5 6 5 5 6 5 3 6 8 9 10 11 12 11 9 8 6
Wind_Direction
231 230 231 232 233 232 231 228 228 224 224 228 226 227 231 229 227 231 234 238 240 241 242 243 242 241 244 249 251 257 260 263 268 268 272 278 284 273 265 273 283 282 274
234 231 231 233 234 232 232 229 227 225 225 227 226 228 235 237 235 236 237 240 246 246 248 246 243 239 242 250 251 256 263 263 269 273 278 276 282 299 304 302 300 289 287
234 233 231 232 233 232 232 230 228 227 229 230 231 233 237 239 241 242 244 245 249 251 249 253 253 243 244 245 251 256 263 261 264 271 275 271 269 277 291 317 310 298 288
233 233 234 232 233 233 233 231 231 229 230 231 233 236 238 241 244 245 247 249 249 252 254 251 253 250 251 251 254 262 267 261 259 266 272 277 279 279 291 314 316 291 282
232 234 236 236 233 234 234 233 232 232 233 233 235 237 239 241 243 243 247 251 251 255 257 254 252 254 254 254 256 260 265 260 258 260 269 273 279 280 292 310 314 298 291
233 239 238 238 234 233 234 234 235 234 233 236 236 237 240 243 244 247 250 254 256 257 256 250 251 250 253 253 254 257 261 259 258 260 267 274 284 285 290 299 301 288 296
239 241 240 239 238 235 233 234 236 235 235 236 236 237 239 242 245 248 252 255 257 257 258 258 257 251 255 255 254 257 261 264 263 267 270 279 285 291 291 295 292 281 289
239 239 240 239 240 238 234 235 236 237 238 236 238 239 239 241 245 248 251 254 257 259 265 267 262 249 250 256 260 262 260 274 266 264 266 271 280 283 289 292 282 285 287
238 239 242 242 240 237 237 237 237 238 239 239 239 240 240 241 241 242 243 248 255 262 264 267 256 244 249 256 259 265 268 272 269 266 260 272 272 287 284 279 283 288 293
239 242 245 244 239 239 242 241 239 239 240 241 240 238 237 237 235 232 230 237 245 252 259 243 242 243 244 252 259 261 263 285 288 270 267 274 279 281 276 281 289 291 294
244 242 241 243 243 245 244 242 240 239 237 235 234 239 231 225 215 212 220 224 253 251 227 208 221 236 247 253 268 269 276 277 252 266 272 277 281 286 289 289 278 285 299
246 244 242 245 246 245 244 243 242 240 233 226 226 230 222 216 213 204 210 198 239 233 229 234 239 236 242 254 263 268 248 239 252 264 272 266 276 290 303 292 292 302 306
239 246 245 243 243 245 242 240 235 235 230 223 214 221 217 207 200 217 207 216 208 211 212 215 239 238 241 251 233 223 227 243 258 251 240 254 274 279 286 291 299 307 308
243 242 240 241 237 237 237 235 231 220 213 215 216 214 208 193 194 202 230 200 202 204 213 225 225 238 245 234 210 213 239 247 236 223 236 251 269 275 284 285 297 308 310
257 250 246 241 235 225 219 220 217 216 216 214 214 210 185 171 159 226 226 222 208 207 209 216 222 233 229 201 205 218 214 223 220 231 243 264 276 283 287 287 296 310 303
272 250 239 237 224 212 208 180 206 200 186 169 153 168 157 167 158 195 211 212 210 212 206 210 215 206 192 197 192 199 213 223 229 243 253 266 275 281 281 283 295 295 300
255 243 237 225 218 214 208 188 172 161 308 287 155 190 200 190 186 185 193 204 197 185 189 186 192 192 187 189 197 214 231 231 233 256 264 267 277 275 280 286 291 293 305
246 266 244 240 231 208 137 235 178 229 195 179 193 198 193 188 164 184 183 182 175 178 179 175 180 186 193 209 220 220 226 236 251 258 259 265 266 282 284 278 286 303 306
119 151 178 247 322 200 204 156 192 184 167 162 172 168 166 163 172 178 179 188 183 177 173 181 192 195 198 200 211 231 244 255 252 242 247 262 277 273 266 284 298 298 305
120 110 146 159 147 160 154 181 185 178 172 170 169 165 161 165 170 175 180 182 180 177 175 185 185 187 188 201 218 236 249 252 248 252 259 251 257 275 286 293 298 295 305
111 121 121 148 162 163 174 178 170 170 169 167 165 167 166 171 176 180 185 182 182 174 164 170 165 185 195 244 244 247 251 249 239 230 223 228 252 271 291 295 285 296 307
130 130 130 132 135 145 156 152 153 155 161 161 161 164 166 168 174 177 179 173 156 141 131 120 134 155 45 347 261 244 241 243 246 241 222 228 254 277 291 282 284 295 305
145 151 154 147 144 142 150 162 162 161 163 164 166 166 163 168 169 165 160 154 151 156 159 170 186 169 58 28 355 253 261 266 256 235 227 238 261 280 276 271 284 288 309
134 159 174 176 177 173 175 182 186 184 182 180 176 174 179 180 176 169 165 177 178 183 192 203 206 193 55 57 51 346 261 257 237 225 233 246 266 269 262 266 277 288 293
190 167 158 150 154 160 155 168 190 199 189 207 206 200 195 194 192 191 192 200 203 203 204 218 217 204 159 46 16 11 346 281 245 235 240 248 254 261 257 259 272 267 286
148 147 176 199 229 243 193 205 178 204 215 217 214 203 207 201 205 204 203 205 207 205 202 193 171 178 217 267 287 321 359 349 274 248 249 255 257 255 252 248 262 265 272